TimePDT,TemperatureF,Dew PointF,Humidity,Sea Level PressureIn,VisibilityMPH,Wind Direction,Wind SpeedMPH,Gust SpeedMPH,PrecipitationIn,Events,Conditions,WindDirDegrees,DateUTC
12:54 AM,73.0,50.0,44,29.88,10.0,ENE,3.5,-,N/A,,Clear,60,2012-10-02 07:54:00
1:54 AM,75.9,51.1,42,29.88,10.0,Calm,Calm,-,N/A,,Clear,0,2012-10-02 08:54:00
2:54 AM,72.0,48.9,44,29.87,10.0,Calm,Calm,-,N/A,,Clear,0,2012-10-02 09:54:00
3:54 AM,71.1,48.9,45,29.87,10.0,Calm,Calm,-,N/A,,Clear,0,2012-10-02 10:54:00
4:54 AM,70.0,50.0,49,29.86,10.0,East,3.5,-,N/A,,Clear,80,2012-10-02 11:54:00
5:54 AM,68.0,51.1,55,29.87,10.0,Calm,Calm,-,N/A,,Clear,0,2012-10-02 12:54:00
6:54 AM,70.0,51.1,51,29.88,10.0,SE,5.8,-,N/A,,Clear,140,2012-10-02 13:54:00
7:54 AM,73.0,51.1,46,29.88,9.0,SE,3.5,-,N/A,,Clear,140,2012-10-02 14:54:00
8:54 AM,79.0,48.9,35,29.89,10.0,SE,5.8,-,N/A,,Clear,140,2012-10-02 15:54:00
9:54 AM,84.9,48.9,29,29.88,10.0,South,4.6,-,N/A,,Clear,170,2012-10-02 16:54:00
10:54 AM,90.0,50.0,25,29.87,10.0,Variable,3.5,-,N/A,,Clear,0,2012-10-02 17:54:00
11:54 AM,91.9,51.1,25,29.86,10.0,WNW,5.8,-,N/A,,Clear,300,2012-10-02 18:54:00
12:54 PM,95.0,48.0,20,29.83,10.0,WNW,4.6,-,N/A,,Clear,290,2012-10-02 19:54:00
1:54 PM,98.1,48.0,18,29.80,10.0,WNW,10.4,-,N/A,,Clear,290,2012-10-02 20:54:00
2:54 PM,99.0,46.9,17,29.78,10.0,WNW,11.5,-,N/A,,Clear,290,2012-10-02 21:54:00
3:54 PM,98.1,46.0,17,29.77,10.0,West,9.2,-,N/A,,Clear,280,2012-10-02 22:54:00
4:54 PM,98.6,46.4,17,29.78,10.0,WNW,9.2,-,N/A,,Clear,300,2012-10-02 23:54:00
5:54 PM,95.0,46.4,19,29.78,10.0,NW,6.9,-,N/A,,Clear,310,2012-10-03 00:54:00
6:54 PM,89.1,54.0,30,29.76,9.0,NW,3.5,-,N/A,,Clear,320,2012-10-03 01:54:00
7:54 PM,86.0,52.0,31,29.78,10.0,NNE,4.6,-,N/A,,Clear,20,2012-10-03 02:54:00
8:54 PM,82.0,50.0,33,29.79,10.0,NE,5.8,-,N/A,,Clear,40,2012-10-03 03:54:00
9:54 PM,84.0,50.0,31,29.81,10.0,ESE,3.5,-,N/A,,Clear,120,2012-10-03 04:54:00
10:54 PM,82.9,51.1,33,29.81,10.0,East,4.6,-,N/A,,Clear,90,2012-10-03 05:54:00
11:54 PM,82.9,48.9,31,29.81,10.0,East,6.9,-,N/A,,Clear,90,2012-10-03 06:54:00